Regional Weather Roundup
Issued by NWS Sioux Falls, SD

Home | Current Version | Previous Version | Graphics & Text | Print | Product List | Glossary On
Versions: 1 2 3 4 5 6 7 8 9 10 11 12 13 14 15 16 17 18 19 20 21 22 23 24 25 26 27 28 29 30 31 32 33 34 35 36 37 38 39 40 41 42 43 44 45 46 47 48 49 50
799
ASUS43 KFSD 210910
RWRFSD

WEATHER ROUNDUP FOR SE SOUTH DAKOTA/SW MINNESOTA/NW IOWA
NATIONAL WEATHER SERVICE SIOUX FALLS SD
300 AM CST TUE NOV 21 2017

NOTE: "FAIR" INDICATES FEW OR NO CLOUDS BELOW 12,000 FEET WITH NO
SIGNIFICANT WEATHER AND OR OBSTRUCTIONS TO VISIBILITY.


SDZ038>040-050-052>070-211000-
SOUTHEAST SOUTH DAKOTA

CITY           SKY/WX    TMP DP  RH WIND       PRES   REMARKS
BROOKINGS      CLOUDY    34  16  47 NW33G43   29.80R WCI  20
CHAMBERLAIN    LGT SNOW  34  34 100 W12G17    29.97R WCI  26
HURON          CLOUDY    33  16  49 NW26G35   29.91R WCI  20
MADISON        CLOUDY    34  19  55 NW24G30   29.84R WCI  21
MITCHELL       CLOUDY    41  20  43 NW21G29   29.90R
SIOUX FALLS    CLOUDY    38  20  48 NW13      29.84R
WINNER         LGT SNOW  34  31  88 NW15      30.00R FOG     WCI  24
YANKTON        CLOUDY    39  21  48 NW14      29.88R
$$

MNZ071-072-080-081-089-090-097-098-211000-
SOUTHWEST MINNESOTA

CITY           SKY/WX    TMP DP  RH WIND       PRES   REMARKS
FAIRMONT       CLOUDY    36  16  44 NW17      29.76R
JACKSON        CLOUDY    36  16  44 NW16G22   29.76R
LUVERNE        CLOUDY    36  18  48 NW10      29.82R
MARSHALL       CLOUDY    34  12  40 NW33G46   29.76R WCI  20
MONTEVIDEO     CLOUDY    27  12  54 N22G33    29.78R WCI  12
PIPESTONE      CLOUDY    34  18  51 NW17G26   29.79R WCI  23
REDWOOD FALLS  CLEAR     31  12  45 NW16G30   29.76R WCI  20
WINDOM           N/A     36  16  44 W17G24    29.76R
WORTHINGTON    CLOUDY    35  14  42 NW13      29.79R WCI  26
$$

IAZ001>003-012>014-020>022-031-032-NEZ013-014-SDZ071-211000-
NORTHWEST IOWA

CITY           SKY/WX    TMP DP  RH WIND       PRES   REMARKS
CHEROKEE       CLOUDY    38  25  58 N14       29.81R
DENISON        CLOUDY    43  27  52 N9        29.79R
ESTHERVILLE    CLOUDY    36  19  50 NW16      29.76R
LE MARS        CLOUDY    39  19  45 N14G21    29.83R
ORANGE CITY    CLOUDY    39  18  41 N13       29.82R
SHELDON        CLOUDY    37  19  48 NW13G18   29.79R
SIOUX CITY     CLOUDY    42  22  44 N15       29.83R
SPENCER        CLOUDY    38  17  42 NW15G28   29.78R
STORM LAKE     CLOUDY    37  27  65 N14G20    29.78R
$$

ABBREVIATIONS USED IN REMARKS
   TC - TEMPERATURE IN CELSIUS
  WCI - WIND CHILL INDEX
   HX - HEAT INDEX
  VSB - VISIBILITY





USA.gov is the U.S. government's official web portal to all federal, state and local government web resources and services.